FW2847 Weather Reports


time (UTC)temp
F
wind
direction
speed
knots
gust
knots
rain 1hr
in
rain 24hr
in
rain mn
in
humidity
%
barometer
mb
20260906231047 85 317 7.0 11.3 0.00 0.01 0.00 38 1020.6
20260906230819 86 27 5.2 10.4 0.00 0.01 0.00 37 1020.6
20260906230046 86 293 4.3 8.7 0.00 0.01 0.00 37 1020.6
20260906225546 85 308 4.3 8.7 0.00 0.01 0.00 38 1020.6
20260906225048 85 299 5.2 8.7 0.00 0.01 0.00 38 1020.6
20260906224547 87 308 5.2 8.7 0.00 0.01 0.00 36 1020.6
20260906224047 86 297 5.2 7.8 0.00 0.01 0.00 37 1020.6
20260906223547 86 309 4.3 7.8 0.00 0.01 0.00 37 1020.6
20260906223048 87 1 2.6 7.0 0.00 0.01 0.00 36 1020.6
20260906222548 86 308 1.7 6.1 0.00 0.01 0.00 36 1020.6
20260906222047 86 55 2.6 8.7 0.00 0.01 0.00 36 1020.6
20260906221818 86 33 4.3 8.7 0.00 0.01 0.00 36 1020.6
20260906221049 86 48 3.5 8.7 0.00 0.01 0.00 37 1020.6
20260906220548 85 89 1.7 7.0 0.00 0.01 0.00 38 1020.6
20260906220046 85 85 0.9 5.2 0.00 0.01 0.00 37 1020.6
20260906215548 86 359 0.9 3.5 0.00 0.01 0.00 36 1020.6
20260906215046 86 347 1.7 7.0 0.00 0.01 0.00 36 1020.6
20260906214548 86 87 2.6 7.0 0.00 0.01 0.00 37 1020.6
20260906214046 86 85 2.6 7.0 0.00 0.01 0.00 36 1020.6
20260906213547 86 84 4.3 9.6 0.00 0.01 0.00 35 1020.6
20260906213319 86 98 4.3 9.6 0.00 0.01 0.00 35 1020.6
20260906212547 86 110 4.3 8.7 0.00 0.01 0.00 35 1020.6
20260906212048 86 98 3.5 7.8 0.00 0.01 0.00 36 1020.6
20260906211821 86 178 3.5 7.8 0.00 0.01 0.00 36 1020.6
20260906211044 85 280 4.3 7.8 0.00 0.01 0.00 35 1020.6
20260906210544 86 75 4.3 8.7 0.00 0.01 0.00 35 1020.6
20260906210046 85 54 3.5 8.7 0.00 0.01 0.00 37 1020.6
20260906205546 84 109 2.6 7.8 0.00 0.01 0.00 37 1020.6
20260906205045 84 79 2.6 7.0 0.00 0.01 0.00 38 1020.6
20260906204543 85 64 4.3 8.7 0.00 0.01 0.00 36 1020.6
20260906204042 86 77 4.3 8.7 0.00 0.01 0.00 36 1020.6
20260906203541 86 113 3.5 7.8 0.00 0.01 0.00 36 1020.6
20260906203039 86 115 2.6 7.8 0.00 0.01 0.00 37 1020.6
20260906202538 85 148 2.6 5.2 0.00 0.01 0.00 39 1020.6
20260906202039 85 54 3.5 9.6 0.00 0.01 0.00 38 1020.6
20260906201538 85 104 4.3 9.6 0.00 0.01 0.00 37 1020.6
20260906201039 85 101 4.3 10.4 0.00 0.01 0.00 38 1020.6
20260906200811 84 84 2.6 10.4 0.00 0.01 0.00 37 1020.6
20260906200039 84 90 3.5 8.7 0.00 0.01 0.00 38 1020.6
20260906195808 85 91 2.6 8.7 0.00 0.01 0.00 36 1020.6
20260906195041 85 122 1.7 4.3 0.00 0.01 0.00 35 1020.6
20260906194538 85 148 1.7 7.0 0.00 0.01 0.00 34 1020.6
20260906194040 84 84 2.6 7.0 0.00 0.01 0.00 37 1020.6
20260906193540 84 84 3.5 7.8 0.00 0.01 0.00 37 1020.6
20260906193040 84 96 4.3 8.7 0.00 0.01 0.00 36 1020.6
20260906192537 84 104 4.3 8.7 0.00 0.01 0.00 37 1020.6
20260906192036 84 89 2.6 6.1 0.00 0.01 0.00 36 1020.6
20260906191536 84 119 2.6 6.1 0.00 0.01 0.00 37 1020.6
20260906191038 83 89 2.6 7.8 0.00 0.01 0.00 39 1020.6
20260906190536 83 85 2.6 7.8 0.00 0.01 0.00 40 1020.6
20260906190036 82 117 3.5 7.0 0.00 0.01 0.00 38 1020.6
20260906185537 82 32 4.3 7.8 0.00 0.01 0.00 39 1020.6
20260906185037 82 101 4.3 8.7 0.00 0.01 0.00 37 1020.6
20260906184534 82 110 3.5 8.7 0.00 0.01 0.00 38 1020.6
20260906184034 83 79 2.6 8.7 0.00 0.01 0.00 39 1020.6
20260906183534 82 17 3.5 9.6 0.00 0.01 0.00 40 1020.6
20260906183035 82 82 4.3 9.6 0.00 0.01 0.00 40 1020.6
20260906182535 82 95 3.5 7.0 0.00 0.01 0.00 40 1020.6
20260906182034 81 36 3.5 6.1 0.00 0.01 0.00 39 1020.6
20260906181535 82 15 3.5 6.1 0.00 0.01 0.00 41 1020.6
20260906181034 80 63 3.5 8.7 0.00 0.01 0.00 42 1020.6
20260906180536 80 91 3.5 8.7 0.00 0.01 0.00 42 1020.6
20260906180032 80 358 1.7 6.1 0.00 0.01 0.00 45 1020.6
20260906175805 79 96 2.6 7.0 0.00 0.01 0.00 43 1020.6
20260906175034 80 92 4.3 7.0 0.00 0.01 0.00 45 1020.6
20260906174532 80 44 3.5 7.0 0.00 0.01 0.00 43 1020.6
20260906174033 79 90 3.5 6.1 0.00 0.01 0.00 46 1020.6
20260906173532 79 37 3.5 6.1 0.00 0.01 0.00 46 1020.6
20260906173033 78 53 2.6 6.1 0.00 0.01 0.00 47 1020.6
20260906172532 78 97 2.6 6.1 0.00 0.01 0.00 47 1020.6
20260906172306 78 76 2.6 6.1 0.00 0.01 0.00 47 1020.6
20260906171805 78 82 3.5 7.0 0.00 0.01 0.00 47 1020.6
20260906171031 78 87 3.5 7.0 0.00 0.01 0.00 47 1020.6
20260906170530 77 79 3.5 7.0 0.00 0.01 0.00 47 1020.6
20260906170030 77 84 3.5 6.1 0.00 0.01 0.00 48 1020.6
20260906165530 77 68 3.5 7.0 0.00 0.01 0.00 48 1020.6
20260906165032 77 84 2.6 7.0 0.00 0.01 0.00 49 1020.6
20260906164529 76 112 1.7 5.2 0.00 0.01 0.00 48 1020.6
20260906164030 76 83 2.6 6.1 0.00 0.01 0.00 50 1020.6
20260906163530 75 98 2.6 6.1 0.00 0.01 0.00 50 1020.6
20260906163031 75 64 2.6 6.1 0.00 0.01 0.00 50 1020.6
20260906162530 76 80 2.6 6.1 0.00 0.01 0.00 51 1020.6
20260906162028 75 60 1.7 5.2 0.00 0.01 0.00 52 1020.6
20260906161528 75 89 2.6 5.2 0.00 0.01 0.00 53 1020.6
20260906161300 75 101 2.6 4.3 0.00 0.01 0.00 55 1020.6
20260906160528 74 82 1.7 5.2 0.00 0.01 0.00 56 1020.6
20260906160029 74 89 2.6 5.2 0.00 0.01 0.00 56 1020.6
20260906155531 74 83 1.7 5.2 0.00 0.01 0.00 56 1020.6
20260906155029 74 75 1.7 5.2 0.00 0.01 0.00 55 1020.6
20260906154528 74 82 1.7 6.1 0.00 0.01 0.00 55 1020.6
20260906154027 74 70 1.7 6.1 0.00 0.01 0.00 55 1020.6
20260906153528 74 76 0.9 6.1 0.00 0.01 0.00 53 1020.6
20260906153254 74 77 0.9 3.5 0.00 0.01 0.00 52 1020.6
20260906152525 74 118 0.9 2.6 0.00 0.01 0.00 53 1020.6
20260906152026 74 95 0.0 2.6 0.00 0.01 0.00 56 1020.6
20260906151757 73 113 0.0 2.6 0.00 0.01 0.00 57 1020.6
20260906151024 72 99 0.0 1.7 0.00 0.01 0.00 59 1020.6
20260906150524 72 88 0.0 1.7 0.00 0.01 0.00 60 1020.6
20260906150023 71 88 0.0 1.7 0.00 0.01 0.00 61 1020.6
20260906145522 70 270 0.9 4.3 0.00 0.01 0.00 63 1020.6
20260906145021 70 311 0.9 4.3 0.00 0.01 0.00 63 1020.6
20260906144524 70 264 0.0 2.6 0.00 0.01 0.00 64 1020.6
20260906144022 69 354 0.0 2.6 0.00 0.01 0.00 67 1020.6
20260906143522 69 58 0.0 0.9 0.00 0.01 0.00 68 1020.6
20260906143027 68 58 0.9 3.5 0.00 0.01 0.00 70 1020.6
20260906143022 68 58 0.9 3.5 0.00 0.01 0.00 71 1020.6
20260906142020 68 53 0.9 2.6 0.00 0.01 0.00 72 1020.6
20260906141521 67 352 0.9 2.6 0.00 0.01 0.00 75 1020.6
20260906141253 67 312 0.9 2.6 0.00 0.01 0.00 75 1020.6
20260906140521 67 291 0.9 4.3 0.00 0.01 0.00 74 1020.6
20260906140021 67 355 1.7 4.3 0.00 0.01 0.00 75 1020.6
20260906135520 66 299 1.7 3.5 0.00 0.01 0.00 75 1020.6
20260906135023 65 359 1.7 4.3 0.00 0.01 0.00 75 1020.6
20260906134517 65 319 2.6 5.2 0.00 0.01 0.00 75 1020.6
20260906134020 64 317 2.6 5.2 0.00 0.01 0.00 76 1020.6
20260906133750 64 311 2.6 5.2 0.00 0.01 0.00 76 1020.6
20260906133017 63 314 2.6 4.3 0.00 0.01 0.00 76 1020.6
20260906132516 63 326 2.6 4.3 0.00 0.01 0.00 76 1020.6
20260906132017 62 297 1.7 3.5 0.00 0.01 0.00 76 1020.6
20260906131747 61 315 1.7 3.5 0.00 0.01 0.00 77 1020.6
20260906131014 61 311 2.6 3.5 0.00 0.01 0.00 76 1020.6
20260906130513 60 297 2.6 3.5 0.00 0.01 0.00 76 1020.6
20260906130011 60 300 2.6 3.5 0.00 0.01 0.00 78 1020.6
20260906125515 60 299 1.7 3.5 0.00 0.01 0.00 80 1020.6
20260906125010 60 304 1.7 2.6 0.00 0.01 0.00 80 1020.6
20260906124509 60 300 1.7 2.6 0.00 0.01 0.00 79 1020.6
20260906124241 60 295 1.7 3.5 0.00 0.01 0.00 79 1020.6
20260906123742 60 290 1.7 3.5 0.00 0.01 0.00 79 1020.6
20260906123010 60 281 1.7 2.6 0.00 0.01 0.00 79 1020.6
20260906122510 60 294 1.7 4.3 0.00 0.01 0.00 79 1020.6
20260906122242 60 293 1.7 4.3 0.00 0.01 0.00 78 1020.6
20260906122131 60 296 1.7 3.5 0.00 0.01 0.00 79 1020.6
20260906121240 60 280 2.6 4.3 0.00 0.01 0.00 79 1020.6
20260906120510 60 295 1.7 4.3 0.00 0.01 0.00 79 1020.6
20260906120014 60 292 1.7 2.6 0.00 0.01 0.00 79 1020.6
20260906120009 60 298 0.9 2.6 0.00 0.01 0.00 79 1020.6
20260906115628 60 291 1.7 3.5 0.00 0.01 0.00 79 1020.6
20260906114510 61 307 1.7 3.5 0.00 0.01 0.00 78 1020.6
20260906114010 60 304 1.7 3.5 0.00 0.01 0.00 78 1020.6
20260906113516 60 317 2.6 5.2 0.00 0.01 0.00 77 1020.6
20260906113511 60 313 2.6 5.2 0.00 0.01 0.00 78 1020.6
20260906112510 60 308 2.6 4.3 0.00 0.01 0.00 76 1020.6
20260906112010 60 300 1.7 4.3 0.00 0.01 0.00 76 1020.6
20260906111512 61 304 1.7 4.3 0.00 0.01 0.00 74 1020.6
20260906111011 61 6 1.7 4.3 0.00 0.01 0.00 73 1020.6
20260906110510 61 331 2.6 4.3 0.00 0.01 0.00 72 1020.6
20260906110011 61 4 1.7 4.3 0.00 0.01 0.00 71 1020.6
20260906105741 61 290 1.7 4.3 0.00 0.01 0.00 70 1020.6
20260906105241 61 330 1.7 4.3 0.00 0.01 0.00 69 1020.6
20260906104509 61 338 1.7 5.2 0.00 0.01 0.00 69 1020.6
20260906104016 61 327 1.7 3.5 0.00 0.01 0.00 68 1020.6
20260906104011 61 325 1.7 5.2 0.00 0.01 0.00 68 1020.6
20260906103010 61 304 1.7 3.5 0.00 0.01 0.00 68 1020.6
20260906102510 61 304 1.7 3.5 0.00 0.01 0.00 68 1020.6
20260906102011 62 309 1.7 4.3 0.00 0.01 0.00 68 1020.6
20260906101509 62 316 1.7 4.3 0.00 0.01 0.00 68 1020.6
20260906101011 62 355 2.6 5.2 0.00 0.01 0.00 67 1020.6
20260906100511 63 348 2.6 5.2 0.00 0.01 0.00 67 1020.6
20260906100012 63 324 1.7 5.2 0.00 0.01 0.00 67 1020.6
20260906095509 63 19 0.9 4.3 0.00 0.01 0.00 65 1020.6
20260906095011 64 33 0.9 2.6 0.00 0.01 0.00 63 1020.6
20260906094508 64 8 0.0 2.6 0.00 0.01 0.00 62 1020.6
20260906094240 64 333 0.0 1.7 0.00 0.01 0.00 60 1020.6
20260906093511 64 352 0.9 1.7 0.00 0.01 0.00 58 1020.6
20260906093007 64 302 0.9 1.7 0.00 0.01 0.00 57 1020.6
20260906092506 64 295 0.0 1.7 0.00 0.01 0.00 58 1020.6
20260906092006 64 296 0.9 1.7 0.00 0.01 0.00 57 1020.6
20260906091506 65 294 0.9 3.5 0.00 0.01 0.00 55 1020.6
20260906091238 65 295 1.7 3.5 0.00 0.01 0.00 55 1020.6
20260906090504 67 304 0.9 3.5 0.00 0.01 0.00 53 1020.6
20260906090236 67 304 0.9 3.5 0.00 0.01 0.00 53 1020.6
20260906085506 68 334 0.9 2.6 0.00 0.01 0.00 52 1020.6
20260906085003 68 288 0.0 2.6 0.00 0.01 0.00 51 1020.6
20260906084503 67 330 0.9 3.5 0.00 0.01 0.00 51 1020.6
20260906084002 67 10 0.9 3.5 0.00 0.01 0.00 52 1020.6
20260906083503 67 358 1.7 5.2 0.00 0.01 0.00 53 1020.6
20260906083001 67 337 1.7 5.2 0.00 0.01 0.00 53 1020.6
20260906082503 66 312 2.6 4.3 0.00 0.01 0.00 54 1020.6
20260906082000 66 306 3.5 5.2 0.00 0.01 0.00 55 1020.6
20260906081501 66 293 3.5 5.2 0.00 0.01 0.00 55 1020.6
20260906081000 67 311 3.5 5.2 0.00 0.01 0.00 54 1020.6
20260906080501 66 314 4.3 6.1 0.00 0.01 0.00 54 1020.6
20260906075958 66 305 4.3 7.0 0.00 0.01 0.00 54 1020.6
20260906075500 67 298 4.3 7.0 0.00 0.01 0.00 54 1020.6
20260906075228 66 288 3.5 5.2 0.00 0.01 0.00 55 1020.6
20260906074457 66 305 3.5 5.2 0.00 0.01 0.00 55 1020.6
20260906074228 67 298 3.5 5.2 0.00 0.01 0.00 53 1020.6
20260906073457 67 301 3.5 5.2 0.00 0.01 0.00 53 1020.6
20260906072957 67 295 3.5 4.3 0.00 0.01 0.00 54 1020.6
20260906072727 68 300 2.6 4.3 0.00 0.01 0.00 54 1020.6
20260906072229 68 300 2.6 3.5 0.00 0.01 0.00 54 1020.6
20260906071458 68 293 2.6 4.3 0.00 0.01 0.00 54 1020.6
20260906070959 69 308 2.6 4.3 0.00 0.01 0.00 53 1020.6
20260906070459 71 299 1.7 4.3 0.00 0.01 0.00 47 1020.6
20260906065959 70 285 2.6 4.3 0.00 0.01 0.00 49 1020.6
20260906065458 70 285 1.7 4.3 0.00 0.01 0.00 50 1020.6
20260906064958 70 292 0.9 4.3 0.00 0.01 0.00 52 1020.6
20260906064456 70 279 0.9 1.7 0.00 0.01 0.00 51 1020.6
20260906063957 70 278 0.9 1.7 0.00 0.01 0.00 53 1020.6
20260906063454 69 279 0.0 0.9 0.00 0.01 0.00 55 1020.6
20260906062955 68 278 0.0 1.7 0.00 0.01 0.00 57 1020.6
20260906062453 68 272 0.0 1.7 0.00 0.01 0.00 60 1020.6
20260906061956 69 219 0.0 0.0 0.01 0.01 0.00 56 1020.6
20260906061454 69 219 0.0 0.0 0.01 0.01 0.00 56 1020.6
20260906061224 69 219 0.0 0.9 0.01 0.01 0.00 56 1020.6
20260906060454 69 219 0.0 0.9 0.01 0.01 0.00 57 1020.6
20260906055950 69 219 0.0 2.6 0.01 0.01 0.01 56 1020.6
20260906055450 69 231 0.0 2.6 0.01 0.01 0.01 61 1020.6
20260906054951 69 255 1.7 3.5 0.01 0.01 0.01 58 1020.6
20260906054453 70 295 2.6 4.3 0.01 0.01 0.01 55 1020.6
20260906053951 69 288 2.6 4.3 0.01 0.01 0.01 55 1020.6
20260906053449 68 295 2.6 6.1 0.01 0.01 0.01 59 1020.6
20260906052950 68 308 2.6 6.1 0.01 0.01 0.01 64 1020.6
20260906052451 69 305 1.7 6.1 0.01 0.01 0.01 62 1020.6
20260906051949 71 226 0.0 0.0 0.00 0.00 0.00 53 1020.6
20260906051450 72 167 0.0 1.7 0.00 0.00 0.00 51 1020.6
20260906050948 73 158 0.0 1.7 0.00 0.00 0.00 48 1020.6
20260906050450 74 272 0.0 0.9 0.00 0.00 0.00 46 1020.6
20260906045947 74 280 0.0 1.7 0.00 0.00 0.00 45 1020.6
20260906045448 75 101 0.0 1.7 0.00 0.00 0.00 42 1020.6
20260906044948 76 184 0.0 0.9 0.00 0.00 0.00 39 1020.6
20260906044449 76 90 0.0 2.6 0.00 0.00 0.00 38 1020.6
20260906043948 76 319 1.7 4.3 0.00 0.00 0.00 37 1020.6
20260906043717 76 351 3.5 8.7 0.00 0.00 0.00 37 1020.6
20260906042948 77 315 4.3 8.7 0.00 0.00 0.00 37 1020.6
20260906042447 77 319 4.3 11.3 0.00 0.00 0.00 37 1020.6
20260906041947 77 281 3.5 11.3 0.00 0.00 0.00 38 1020.6
20260906041446 77 268 2.6 11.3 0.00 0.00 0.00 39 1020.6
20260906040948 77 191 2.6 9.6 0.00 0.00 0.00 38 1020.6
20260906040446 77 267 2.6 10.4 0.00 0.00 0.00 38 1020.6
20260906035945 77 331 2.6 10.4 0.00 0.00 0.00 38 1020.6
20260906035446 77 277 1.7 7.0 0.00 0.00 0.00 36 1020.6
20260906034946 76 291 0.9 5.2 0.00 0.00 0.00 35 1020.6
20260906034446 78 75 2.6 7.0 0.00 0.00 0.00 34 1020.6
20260906033943 79 277 3.5 7.0 0.00 0.00 0.00 33 1020.6
20260906033713 79 280 3.5 6.1 0.00 0.00 0.00 32 1020.6
20260906032943 79 278 3.5 6.1 0.00 0.00 0.00 32 1020.6
20260906032443 79 287 3.5 6.1 0.00 0.00 0.00 32 1020.6
20260906031943 78 290 3.5 6.1 0.00 0.00 0.00 33 1020.6
20260906031445 78 289 3.5 6.1 0.00 0.00 0.00 33 1020.6
20260906030943 78 268 4.3 8.7 0.00 0.00 0.00 33 1020.6
20260906030444 78 288 5.2 8.7 0.00 0.00 0.00 33 1020.6
20260906025943 78 282 4.3 8.7 0.00 0.00 0.00 34 1020.6
20260906025445 77 269 4.3 7.0 0.00 0.00 0.00 34 1020.6
20260906024942 78 292 4.3 7.8 0.00 0.00 0.00 34 1020.6
20260906024714 77 295 4.3 7.8 0.00 0.00 0.00 34 1020.6
20260906023945 77 281 5.2 7.8 0.00 0.00 0.00 34 1020.6
20260906023442 77 279 4.3 7.8 0.00 0.00 0.00 34 1020.6
20260906022943 77 299 3.5 6.1 0.00 0.00 0.00 34 1020.6
20260906022442 78 266 4.3 7.8 0.00 0.00 0.00 34 1020.6
20260906021945 78 297 4.3 8.7 0.00 0.00 0.00 33 1020.6
20260906021443 78 298 4.3 8.7 0.00 0.00 0.00 33 1020.6
20260906020942 78 296 3.5 6.1 0.00 0.00 0.00 32 1020.6
20260906020713 79 298 4.3 7.8 0.00 0.00 0.00 31 1020.6
20260906015945 80 295 5.2 9.6 0.00 0.00 0.00 31 1020.6
20260906015443 80 275 6.1 11.3 0.00 0.00 0.00 31 1020.6
20260906014944 80 287 6.1 11.3 0.00 0.00 0.00 31 1020.6
20260906014443 80 296 5.2 10.4 0.00 0.00 0.00 31 1020.6
20260906013943 79 295 5.2 7.8 0.00 0.00 0.00 32 1020.6
20260906013443 79 288 4.3 7.8 0.00 0.00 0.00 32 1020.6
20260906013215 80 297 4.3 7.8 0.00 0.00 0.00 32 1020.6
20260906012443 79 302 5.2 7.8 0.00 0.00 0.00 32 1020.6
20260906011943 80 301 5.2 8.7 0.00 0.00 0.00 32 1020.6
20260906011445 80 293 5.2 8.7 0.00 0.00 0.00 32 1020.6
20260906011214 80 274 6.1 8.7 0.00 0.00 0.00 32 1020.6
20260906010444 80 298 6.1 8.7 0.00 0.00 0.00 31 1020.6
20260906005943 80 302 6.1 8.7 0.00 0.00 0.00 31 1020.6
20260906005716 80 285 5.2 8.7 0.00 0.00 0.00 31 1020.6
20260906005214 81 317 5.2 7.8 0.00 0.00 0.00 31 1020.6
20260906004444 80 296 4.3 7.0 0.00 0.00 0.00 31 1020.6
20260906003944 81 314 5.2 9.6 0.00 0.00 0.00 31 1020.6
20260906003443 81 302 6.1 10.4 0.00 0.00 0.00 30 1020.6
20260906002943 82 299 5.2 10.4 0.00 0.00 0.00 30 1020.6
20260906002714 83 308 3.5 7.8 0.00 0.00 0.00 29 1020.6
20260906001940 83 336 3.5 7.8 0.00 0.00 0.00 27 1020.6
20260906001440 83 330 3.5 7.0 0.00 0.00 0.00 27 1020.6
20260906001211 84 20 3.5 7.8 0.00 0.00 0.00 27 1020.6
20260906000440 84 18 4.3 8.7 0.00 0.00 0.00 27 1020.6
20260906000212 85 6 3.5 8.7 0.00 0.00 0.00 26 1020.6
20260905235442 85 333 3.5 7.8 0.00 0.00 0.00 26 1020.6
20260905234941 85 313 3.5 7.8 0.00 0.00 0.00 26 1020.6
20260905234441 85 49 3.5 7.0 0.00 0.00 0.00 26 1020.6
20260905233940 85 327 3.5 7.0 0.00 0.00 0.00 26 1020.6
20260905233441 85 15 3.5 8.7 0.00 0.00 0.00 26 1020.6
20260905232938 86 35 3.5 8.7 0.00 0.00 0.00 25 1020.6
20260905232439 86 4 3.5 6.1 0.00 0.00 0.00 25 1020.6
20260905231939 87 55 3.5 7.0 0.00 0.00 0.00 25 1020.6